GW3650 Weather Reports


Display with metric or nautical units.
time (UTC)temp
F
wind
direction
speed
MPH
gust
MPH
rain 1hr
in
rain 24hr
in
rain mn
in
humidity
%
barometer
mb
20260508223016 47 0 4.0 8.0 0.00 0.00 0.00 79 1029.7
20260508220016 45 0 1.0 8.0 0.00 0.00 0.00 85 1029.7
20260508213016 43 0 1.0 4.0 0.00 0.00 0.00 81 1029.8
20260508210016 45 0 2.0 4.0 0.00 0.00 0.00 80 1029.9
20260508203016 46 0 3.0 6.0 0.00 0.00 0.00 76 1029.7
20260508200018 47 0 3.0 6.0 0.00 0.00 0.00 78 1029.5
20260508193036 47 0 3.0 8.0 0.00 0.00 0.00 75 1029.6
20260508190016 49 0 4.0 8.0 0.00 0.00 0.00 76 1029.5
20260508183016 50 0 3.0 8.0 0.00 0.00 0.00 74 1029.6
20260508180016 50 0 2.0 4.0 0.00 0.00 0.00 72 1029.6
20260508173018 51 0 2.0 5.0 0.00 0.00 0.00 71 1029.3
20260508170018 52 0 3.0 6.0 0.00 0.00 0.00 70 1029.5
20260508163038 51 0 2.0 5.0 0.00 0.00 0.00 71 1029.5
20260508160017 51 0 2.0 4.0 0.00 0.00 0.00 73 1029.6
20260508153016 50 0.0 2.0 0.00 0.00 0.00 69 1029.8
20260508150016 52 0 2.0 4.0 0.00 0.00 0.00 66 1029.9
20260508143016 53 0 1.0 4.0 0.00 0.00 0.00 65 1029.8
20260508140016 53 0 1.0 5.0 0.00 0.00 0.00 65 1029.7
20260508133016 53 0 2.0 6.0 0.00 0.00 0.00 65 1029.6
20260508130038 52 0 1.0 4.0 0.00 0.00 0.00 68 1029.5
20260508123018 53 0 1.0 2.0 0.00 0.00 0.00 67 1029.1
20260508120017 54 0.0 2.0 0.00 0.00 0.00 66 1028.7
20260508113018 56 0 1.0 3.0 0.00 0.00 0.00 61 1028.6
20260508110017 60 0 3.0 6.0 0.00 0.00 0.00 57 1028.4
20260508103058 61 135 5.0 9.0 0.00 0.00 0.00 57 1028.3
20260508100017 64 113 9.0 12.0 0.00 0.00 0.00 52 1028.5
20260508093018 66 113 11.0 17.0 0.00 0.00 0.00 49 1028.5
20260508090017 68 113 14.0 20.0 0.00 0.00 0.00 47 1028.6
20260508083018 69 113 14.0 25.0 0.00 0.00 0.00 47 1028.5
20260508080017 70 113 15.0 23.0 0.00 0.00 0.00 46 1028.5
20260508073017 70 113 11.0 20.0 0.00 0.00 0.00 46 1028.4
20260508070017 69 113 13.0 25.0 0.00 0.00 0.00 48 1028.7
20260508063017 70 113 11.0 24.0 0.00 0.00 0.00 47 1028.7
20260508060017 70 113 12.0 25.0 0.00 0.00 0.00 48 1028.9
20260508053017 69 113 9.0 30.0 0.00 0.00 0.00 51 1029.3
20260508050017 70 90 7.0 17.0 0.00 0.00 0.00 51 1029.7
20260508043037 68 90 8.0 17.0 0.00 0.00 0.00 53 1030.3
20260508040037 68 90 7.0 16.0 0.00 0.00 0.00 57 1030.8
20260508033017 66 90 8.0 18.0 0.00 0.00 0.00 60 1031.4
20260508030017 66 90 8.0 19.0 0.00 0.00 0.00 64 1031.8
20260508023017 65 90 8.0 15.0 0.00 0.00 0.00 65 1032.2
20260508020016 64 90 8.0 16.0 0.00 0.00 0.00 68 1032.5
20260508013037 62 90 7.0 15.0 0.00 0.00 0.00 73 1033.0
20260508010016 59 113 9.0 16.0 0.00 0.00 0.00 80 1033.0
20260508003016 55 113 5.0 12.0 0.00 0.00 0.00 87 1032.9
20260508000017 50 0 1.0 5.0 0.00 0.00 0.00 90 1032.5
20260507233016 46 0.0 3.0 0.00 0.00 0.00 88 1032.1
20260507230016 45 0.0 0.0 0.00 0.00 0.00 85 1031.8